DW0268 Weather Reports


Display with metric or nautical units.
time (UTC)temp
F
wind
direction
speed
MPH
gust
MPH
rain 1hr
in
rain 24hr
in
rain mn
in
humidity
%
barometer
mb
20260502201537 65 328 11.0 21.0 0.00 0.00 0.00 38 1020.1
20260502200043 66 321 11.0 20.0 0.00 0.00 0.00 39 1020.2
20260502194535 65 312 10.0 20.0 0.00 0.00 0.00 40 1020.1
20260502193035 65 307 11.0 23.0 0.00 0.00 0.00 39 1020.1
20260502191537 66 355 12.0 21.0 0.00 0.00 0.00 38 1020.2
20260502190033 66 277 16.0 21.0 0.00 0.00 0.00 38 1020.3
20260502184536 66 297 14.0 23.0 0.00 0.00 0.00 42 1020.3
20260502183030 66 325 12.0 19.0 0.00 0.00 0.00 42 1020.3
20260502181529 66 290 9.0 25.0 0.00 0.00 0.00 43 1020.4
20260502163024 64 309 14.0 19.0 0.00 0.00 0.00 45 1020.8
20260502161518 64 307 9.0 17.0 0.00 0.00 0.00 44 1020.7
20260502151510 61 252 13.0 21.0 0.00 0.00 0.00 57 1020.9
20260502123055 50 217 2.0 4.0 0.00 0.00 0.00 85 1020.4
20260502121544 49 160 2.0 4.0 0.00 0.00 0.00 88 1020.3
20260502114542 47 155 0.0 0.0 0.00 0.00 0.00 87 1020.0
20260502113042 47 156 1.0 2.0 0.00 0.00 0.00 87 1019.9
20260502111548 47 156 2.0 3.0 0.00 0.00 0.00 87 1019.7
20260502110038 48 155 1.0 2.0 0.00 0.00 0.00 86 1019.7
20260502104535 48 155 1.0 2.0 0.00 0.00 0.00 86 1019.7
20260502103034 47 155 0.0 0.0 0.00 0.00 0.00 86 1019.5
20260502101534 48 155 0.0 0.0 0.00 0.00 0.00 86 1019.6
20260502091526 49 155 1.0 2.0 0.00 0.00 0.00 84 1019.6
20260502071512 52 103 2.0 3.0 0.00 0.00 0.00 79 1019.9
20260502070010 52 98 0.0 1.0 0.00 0.00 0.00 75 1020.0
20260502064516 53 98 0.0 1.0 0.00 0.00 0.00 70 1020.1
20260502063009 52 98 1.0 2.0 0.00 0.00 0.00 69 1020.3
20260502061507 52 98 0.0 0.0 0.00 0.00 0.00 70 1020.4
20260502060005 53 98 0.0 0.0 0.00 0.00 0.00 72 1020.4
20260502054502 53 98 0.0 0.0 0.00 0.00 0.00 72 1020.4
20260502053106 53 98 0.0 1.0 0.00 0.00 0.00 72 1020.3
20260502051557 54 98 0.0 0.0 0.00 0.00 0.00 70 1020.1
20260502050057 55 98 0.0 2.0 0.00 0.00 0.00 65 1019.9
20260502044553 55 98 1.0 3.0 0.00 0.00 0.00 64 1019.8
20260502043055 55 98 1.0 3.0 0.00 0.00 0.00 64 1019.8
20260502041555 56 98 1.0 3.0 0.00 0.00 0.00 63 1019.7
20260502040053 56 98 1.0 6.0 0.00 0.00 0.00 63 1019.8
20260502034555 56 94 2.0 4.0 0.00 0.00 0.00 62 1019.9
20260502033049 56 74 3.0 6.0 0.00 0.00 0.00 62 1020.2
20260502031549 57 65 4.0 6.0 0.00 0.00 0.00 62 1020.6
20260502030051 57 67 4.0 6.0 0.00 0.00 0.00 62 1020.7
20260502024547 58 63 4.0 6.0 0.00 0.00 0.00 59 1020.5
20260502023047 59 79 2.0 5.0 0.00 0.00 0.00 57 1020.5
20260502021546 59 360 2.0 6.0 0.00 0.00 0.00 56 1020.5
20260502020048 59 69 2.0 6.0 0.00 0.00 0.00 55 1020.5
20260502014549 59 74 3.0 9.0 0.00 0.00 0.00 54 1020.1
20260502013044 60 54 5.0 9.0 0.00 0.00 0.00 52 1019.8
20260502011544 60 65 5.0 10.0 0.00 0.00 0.00 51 1019.6
20260502010048 61 68 4.0 9.0 0.00 0.00 0.00 49 1019.4
20260502004544 61 54 6.0 10.0 0.00 0.00 0.00 47 1019.0
20260502003042 62 67 3.0 11.0 0.00 0.00 0.00 45 1018.7
20260502001543 63 61 3.0 9.0 0.00 0.00 0.00 44 1018.6
20260502000048 63 57 3.0 9.0 0.00 0.00 0.00 43 1018.4
20260501234541 63 44 3.0 7.0 0.00 0.00 0.00 43 1018.2
20260501233040 63 57 6.0 14.0 0.00 0.00 0.00 42 1018.4
20260501231554 64 52 3.0 10.0 0.00 0.00 0.00 41 1018.3
20260501230050 64 30 4.0 10.0 0.00 0.00 0.00 41 1017.9
20260501224546 65 49 3.0 12.0 0.00 0.00 0.00 41 1018.0
20260501223045 65 5 5.0 15.0 0.00 0.00 0.00 40 1017.7
20260501221550 64 61 4.0 11.0 0.00 0.00 0.00 39 1017.6
20260501220036 65 72 4.0 15.0 0.00 0.00 0.00 39 1017.4
20260501214534 65 38 5.0 13.0 0.00 0.00 0.00 41 1017.4
20260501213033 65 49 5.0 12.0 0.00 0.00 0.00 41 1017.8
20260501211532 64 360 5.0 18.0 0.00 0.00 0.00 38 1018.1
20260501210030 65 9 7.0 17.0 0.00 0.00 0.00 39 1018.3
20260501204531 63 13 3.0 15.0 0.00 0.00 0.00 39 1018.7
20260501203029 64 40 6.0 14.0 0.00 0.00 0.00 37 1018.9